Location: S�tio Afonso Gruber
(26.1760°S, 49.5250°W)
Time: 22:09:27
(UTC+00:00)

Cosmos 2100 Rocket - Pass Details

Date: 07 June 2020
Orbit: 955 x 1001 km, 82.9° (Epoch: 10 July)

Event Time Altitude Azimuth Distance (km) Brightness Sun altitude
Exits shadow 08:42:11 - 197° (SSW) 3,138 6.3 -17.2°
Reaches altitude 10° 08:43:18 10° 200° (SSW) 2,739 6.0 -17.0°
Maximum altitude 08:49:14 45° 271° (W) 1,309 4.3 -15.7°
Drops below altitude 10° 08:55:10 10° 342° (NNW) 2,741 6.4 -14.5°
Sets 08:57:47 0° 347° (NNW) 3,689 7.1 -13.9°
